Location: Waco, TX
(31.5480°N, 97.1670°W)
Time: 01:03:41
(UTC-05:00)

ISS - Pass Details

Date: 14 August 2018
Orbit: 402 x 409 km, 51.6° (Epoch: 16 August)

Event Time Altitude Azimuth Distance (km) Brightness Sun altitude
Rises 10:50:30 0° 198° (SSW) 2,298 0.0 49.0°
Reaches altitude 10° 10:52:49 10° 183° (S) 1,442 -0.8 49.5°
Maximum altitude 10:55:27 23° 129° (SE) 905 -0.9 50.0°
Drops below altitude 10° 10:58:05 10° 74° (ENE) 1,448 -0.3 50.6°
Sets 11:00:25 0° 59° (ENE) 2,310 0.4 51.0°
